Home   Weather   Stonewall   Past weeks

Flag for Canada Past Weather in Stonewall, Manitoba, Canada — Yesterday and Last 2 Weeks

Now
59 °F

Passing clouds.


Feels Like: 58 °F
Forecast: 26 / 59 °F
Wind: 8 mph from South

Location: Winnipeg Int. Airportman.

Current Time: Apr 29, 2017 at 2:46:06 pm

Latest Report: Apr 29, 2017 at 2:00 pm


Visibility: 15 mi

Pressure: 30.31 "Hg

Humidity: 17%

Dew Point: 14 °F

Location of StonewallLocation

Past Weather in Stonewall — Graph

°F

Stonewall Temperature Yesterday

Maximum temperature yesterday: 52 °F (at 3:00 pm)
Minimum temperature yesterday: 23 °F (at 4:00 am)
Average temperature yesterday: 39 °F

High & Low Weather Summary for the Past Weeks

 TemperatureHumidityPressure
High70 °F (Apr 14, 5:00 pm)100% (Apr 16, 2:00 am)30.37 "Hg (Apr 16, 2:00 am)
Low23 °F (Apr 17, 2:29 am)17% (Apr 28, 1:00 pm)29.60 "Hg (Apr 14, 9:00 pm)
Average39 °F69%30.05 "Hg
* Reported Apr 14 1:00 pm — Apr 29 1:00 pm, Stonewall, Weather by CustomWeather, © 2017

Note: Actual official high and low records may vary slightly from our data, if they occured in-between our weather recording intervals... More about our weather records

Advertising

Stonewall Weather History for the Previous 24 Hours

Scroll right to see more
 ConditionsComfort  
Time TempWeatherWind HumidityBarometerVisibility
1:00 pm
Sat, Apr 29
57 °FPassing clouds.14 mph18%30.33 "Hg15 mi
12:00 pm55 °FPassing clouds.14 mph19%30.35 "Hg15 mi
11:00 am52 °FPassing clouds.8 mph20%30.35 "Hg15 mi
10:00 am48 °FSunny.9 mph25%30.35 "Hg15 mi
9:00 am43 °FSunny.3 mph36%30.33 "Hg15 mi
8:00 am36 °FSunny.No wind60%30.33 "Hg15 mi
7:00 am25 °FPassing clouds.3 mph80%30.32 "Hg15 mi
6:00 am23 °FPassing clouds.3 mph86%30.30 "Hg15 mi
5:00 am27 °FClear.No wind64%30.29 "Hg15 mi
4:00 am28 °FClear.2 mph64%30.29 "Hg15 mi
3:00 am27 °FClear.No wind74%30.28 "Hg15 mi
2:00 am32 °FClear.3 mph51%30.27 "Hg15 mi
1:00 am32 °FClear.No wind51%30.25 "Hg15 mi
12:00 am30 °FClear.3 mph55%30.23 "Hg15 mi
11:00 pm
Fri, Apr 28
34 °FClear.3 mph48%30.22 "Hg15 mi
10:00 pm36 °FPassing clouds.5 mph44%30.20 "Hg15 mi
9:29 pm36 °FClear.5 mph41%30.18 "Hg15 mi
9:00 pm39 °FPassing clouds.7 mph36%30.16 "Hg15 mi
8:00 pm46 °FPassing clouds.12 mph29%30.13 "Hg15 mi
7:00 pm50 °FPassing clouds.17 mph17%30.11 "Hg15 mi
6:00 pm52 °FPassing clouds.15 mph20%30.09 "Hg15 mi
5:00 pm52 °FPassing clouds.21 mph20%30.07 "Hg15 mi
4:00 pm52 °FPassing clouds.15 mph19%30.07 "Hg15 mi
3:47 pm52 °FPassing clouds.17 mph20%30.06 "Hg15 mi
3:00 pm52 °FPassing clouds.16 mph20%30.06 "Hg15 mi
2:00 pm50 °FPassing clouds.12 mph19%30.03 "Hg15 mi
Weather by CustomWeather, © 2017

See weather overviewHow to use our weather pages